Regional Weather Roundup
Issued by NWS

Home | Current Version | Previous Version | Graphics & Text | Print | Product List | Glossary On
Versions: 1 2 3 4 5 6 7 8 9 10 11 12 13 14 15 16 17 18 19 20 21 22 23 24 25 26 27 28 29 30 31 32 33 34 35 36 37 38 39 40 41 42 43 44 45 46 47 48 49 50
066
ASUS44 KMEG 241110
RWRTN
TENNESSEE HOURLY STATE WEATHER ROUNDUP
NATIONAL WEATHER SERVICE MEMPHIS TN
600 AM CDT TUE MAY 24 2016

TNZ002-004-019-021-049-052-054-088>092-241200-
WEST TENNESSEE

CITY           SKY/WX    TMP DP  RH WIND       PRES   REMARKS
MEMPHIS INTL   MOCLDY    69  54  58 S6        30.01R
NWS MEMPHIS      N/A     63 N/A N/A MISG        N/A
JACKSON        CLOUDY    60  57  89 CALM      30.04R
DYERSBURG      CLOUDY    66  55  68 SE6       30.02R
UNION CITY     MOCLDY    63  63 100 N3        30.03R
PARIS          PTCLDY    59  55  88 CALM      30.05R
LEXINGTON      MOCLDY    57  55  94 CALM      30.05R
$$

TNZ008-025-027-028-033-062-065-066-241200-
NORTH MIDDLE TENNESSEE

CITY           SKY/WX    TMP DP  RH WIND       PRES   REMARKS
NASHVILLE      PTCLDY    56  52  86 CALM      30.08R
CLARKSVILLE    CLOUDY    54  52  93 CALM      30.06R
SMYRNA         CLEAR     51  51 100 S3        30.09R
COOKEVILLE     CLEAR     46  46 100 CALM      30.10R
CROSSVILLE     CLEAR     50  45  83 CALM      30.14R
$$

TNZ061-075-076-078-094-096-097-241200-
SOUTH MIDDLE TENNESSEE

CITY           SKY/WX    TMP DP  RH WIND       PRES   REMARKS
FAYETTEVILLE   CLEAR     57  52  82 CALM      30.08S
TULLAHOMA      CLEAR     50  50 100 CALM      30.10S
WINCHESTER     CLEAR     48  46  93 CALM      30.11R
MCMINNVILLE    CLEAR     48  48 100 CALM      30.11R
COLUMBIA       CLEAR    N/A N/A N/A CALM      30.06S
SHELBYVILLE    CLEAR     55  52  88 E5        30.09S
$$

TNZ017-018-042-046-047-241200-
NORTHEAST TENNESSEE

CITY           SKY/WX    TMP DP  RH WIND       PRES   REMARKS
TRI CITIES     CLEAR     49  47  93 CALM      30.15R
$$

TNZ012-013-036-069-073-074-241200-
CENTRAL EAST TENNESSEE

CITY           SKY/WX    TMP DP  RH WIND       PRES   REMARKS
KNOXVILLE      PTCLDY    51  49  92 NE3       30.12R
OAK RIDGE      CLEAR     52  49  89 CALM      30.14R
GATLINBURG     CLEAR     48  46  93 CALM      30.13R
$$

TNZ083-085-099-241200-
SOUTHEAST TENNESSEE

CITY           SKY/WX    TMP DP  RH WIND       PRES   REMARKS
CHATTANOOGA    PTCLDY    56  52  86 CALM      30.12R
$$

SKY/WX REPORTED AS FAIR MEANS FEW OR NO CLOUDS BELOW
12 THOUSAND FEET.





USA.gov is the U.S. government's official web portal to all federal, state and local government web resources and services.